Location: Newark
(34.1333°N, 7.9667°W)
Time: 15:38:41
(UTC+00:00)

ITAMSAT 1 - Pass Details

Date: 20 April 2024
Orbit: 782 x 796 km, 98.8° (Epoch: 25 May)

Event Time Altitude Azimuth Distance (km) Brightness Sun altitude
Exits shadow 19:57:39 14° 105° (ESE) 2,117 9.2 -10.6°
Maximum altitude 20:00:31 21° 67° (ENE) 1,735 9.1 -11.2°
Drops below altitude 10° 20:04:18 10° 20° (NNE) 2,371 10.2 -11.9°
Sets 20:07:09 0° 4° (N) 3,304 11.2 -12.4°
